[[{"header":{"parameterUnit":"m.s-1","parameterCategory":1,"la1":30.2991,"la2":30.254,"lo1":-89.0895,"lo2":-89.0444,"dy":0.0017,"dx":0.0017,"nx":28,"ny":28,"refTime":"2025-08-04T21:00:00:Z","depth":0,"parameterNumber":2,"parameterNumberName":"U-component_of_WINDS"},"data":[0,0,0,0,0,0,0,0,0,0,0,0,0,0,0,0,0,0,0,0,0,0,0,0,0,0,0,0,0,0,0,0,0,0,0,0,0,0,0,0,0,0,0,0,0,0,0,0,0,0,0,0,0,0,0,0,0,0,-0.5243,-0.5242,0,-0.5179,-0.5178,-0.5177,-0.5138,-0.5138,-0.5138,-0.5138,-0.5069,-0.5067,-0.5066,0,0,0,0,0,0,0,0,0,0,0,0,0,-0.5332,-0.533,-0.5243,-0.5242,-0.5242,-0.5179,-0.5178,-0.5177,-0.5138,-0.5138,-0.5138,-0.5138,-0.507,-0.5068,-0.5066,0,0,0,0,0,0,0,0,0,0,0,0,0,-0.5283,-0.533,-0.5243,-0.5215,-0.5212,-0.5179,-0.5178,-0.5177,-0.5139,-0.5138,-0.5138,-0.5138,-0.507,-0.5068,-0.5065,-0.5055,0,0,-0.5058,-0.5056,0,0,0,0,0,0,0,0,-0.5285,-0.5279,-0.522,-0.5217,-0.5213,-0.5166,-0.5184,-0.5136,-0.5139,-0.5166,-0.5138,-0.5138,-0.5101,-0.5096,-0.5085,-0.5052,-0.5049,-0.5057,-0.5056,-0.5055,-0.5054,0,0,0,0,0,0,0,-0.5289,-0.5282,-0.5217,-0.5219,-0.5215,-0.5205,-0.5198,-0.5174,-0.5136,-0.5164,-0.5161,-0.5154,-0.5099,-0.5087,-0.5083,-0.5048,-0.5057,-0.5055,-0.5054,-0.5053,-0.5004,-0.5004,0,0,0,0,0,0,-0.5297,-0.5285,-0.522,-0.5216,-0.525,-0.5203,-0.5195,-0.5182,-0.5136,-0.5129,-0.5154,-0.5152,-0.5092,-0.5086,-0.508,-0.5065,-0.5055,-0.5052,-0.5051,-0.5003,-0.5004,-0.5004,0,0,0,0,0,0,-0.5299,-0.5292,-0.5222,-0.525,-0.524,-0.5202,-0.5187,-0.518,-0.5168,-0.5129,-0.5122,-0.5149,-0.5091,-0.5084,-0.5062,-0.5062,-0.5051,-0.5049,-0.5003,-0.5004,-0.5004,-0.5036,0,0,0,0,0,0,-0.5302,-0.5293,-0.5289,-0.525,-0.5239,-0.5205,-0.5187,-0.5179,-0.5164,-0.5161,-0.5122,-0.5115,-0.509,-0.5066,-0.5059,-0.5059,-0.5047,-0.5003,-0.5003,-0.5004,-0.5034,-0.5037,-0.5039,0,0,0,0,0,-0.5305,-0.5299,-0.5289,-0.5281,-0.5233,-0.5206,-0.5199,-0.5172,-0.5164,-0.516,-0.5135,-0.5116,-0.5064,-0.5064,-0.5056,-0.5055,-0.5003,-0.5003,-0.5004,-0.5033,-0.5037,-0.5039,0,0,0,0,0,0,-0.5338,-0.5294,-0.5281,-0.5263,-0.5238,-0.5199,-0.5192,-0.5176,-0.5152,-0.515,-0.5116,-0.5108,-0.5089,-0.507,-0.5071,-0.5043,-0.5031,-0.503,-0.5056,-0.5059,-0.5061,-0.5066,-0.5045,0,0,0,0,0,-0.5343,-0.5325,-0.5287,-0.5275,-0.5263,-0.523,-0.5217,-0.5198,-0.5171,-0.5161,-0.5134,-0.5108,-0.5085,-0.5071,-0.5048,-0.5032,-0.5023,-0.5027,-0.503,-0.5032,-0.5031,-0.5022,-0.5023,-0.5006,-0.5006,-0.5006,0,0,-0.5353,-0.5327,-0.5318,-0.5281,-0.526,-0.5242,-0.5222,-0.5203,-0.5189,-0.5157,-0.5135,-0.5115,-0.5084,-0.5065,-0.5055,-0.5048,-0.5034,-0.5033,-0.5035,-0.5032,-0.5022,-0.5024,-0.5026,-0.5006,-0.5006,-0.5006,0,0,-0.5363,-0.5341,-0.5329,-0.5308,-0.5277,-0.5255,-0.5253,-0.5216,-0.5202,-0.518,-0.5156,-0.5139,-0.5101,-0.5079,-0.5064,-0.5067,-0.5049,-0.5061,-0.5073,-0.5064,-0.5066,-0.5067,-0.5068,-0.5069,-0.506,-0.506,-0.506,0,-0.5379,-0.5351,-0.5324,-0.5307,-0.5292,-0.5264,-0.5251,-0.5232,-0.5195,-0.5184,-0.5178,-0.513,-0.5107,-0.5083,-0.5084,-0.5072,-0.5068,-0.5065,-0.5068,-0.5069,-0.5069,-0.507,-0.5071,-0.5062,-0.5062,-0.5062,-0.5061,0,-0.5373,-0.5355,-0.5348,-0.5314,-0.5298,-0.5283,-0.5253,-0.524,-0.5223,-0.5202,-0.518,-0.5152,-0.5123,-0.5116,-0.5099,-0.509,-0.5087,-0.5075,-0.5062,-0.5073,-0.5073,-0.5073,-0.5064,-0.5064,-0.5063,-0.5063,0,0,-0.54,-0.5352,-0.535,-0.5335,-0.5299,-0.5284,-0.5268,-0.5242,-0.5231,-0.5207,-0.5192,-0.5162,-0.5151,-0.5133,-0.5113,-0.5106,-0.5111,-0.5094,-0.5093,-0.5098,-0.5099,-0.5109,-0.511,-0.5099,-0.5099,-0.5099,-0.5102,0,-0.5404,-0.5375,-0.535,-0.533,-0.5313,-0.5287,-0.5273,-0.5249,-0.523,-0.5212,-0.519,-0.5169,-0.5155,-0.5145,-0.5136,-0.5112,-0.511,-0.5111,-0.5085,-0.5084,-0.5093,-0.511,-0.5119,-0.5124,-0.5102,-0.5102,-0.5102,0,-0.5404,-0.5383,-0.5361,-0.5328,-0.532,-0.5308,-0.5282,-0.5265,-0.5238,-0.5225,-0.5206,-0.5186,-0.5168,-0.5158,-0.5133,-0.5134,-0.5122,-0.5109,-0.5108,-0.5104,-0.5093,-0.5106,-0.5124,-0.5125,-0.5102,-0.5102,-0.5102,0,-0.5426,-0.5391,-0.5374,-0.5362,-0.5323,-0.5315,-0.5299,-0.5272,-0.5258,-0.5235,-0.5225,-0.52,-0.5187,-0.5168,-0.5141,-0.5137,-0.5119,-0.5107,-0.5107,-0.5107,-0.5103,-0.5104,-0.512,-0.5096,-0.5096,-0.5096,-0.5096,0,-0.5433,-0.5421,-0.5384,-0.5373,-0.5359,-0.5331,-0.5317,-0.5298,-0.5275,-0.526,-0.5235,-0.5222,-0.5188,-0.517,-0.515,-0.5132,-0.5126,-0.5114,-0.5109,-0.5116,-0.5118,-0.5107,-0.5106,-0.5097,-0.5097,-0.5097,-0.5096,0,-0.5455,-0.5429,-0.5409,-0.5375,-0.5366,-0.5357,-0.5327,-0.5316,-0.5295,-0.5277,-0.5271,-0.5239,-0.5217,-0.5189,-0.5158,-0.5144,-0.5128,-0.512,-0.5138,-0.5135,-0.5136,-0.5136,-0.5145,-0.5145,-0.5123,-0.5123,-0.5123,0,-0.5461,-0.5451,-0.5416,-0.5405,-0.5389,-0.5371,-0.5357,-0.533,-0.5316,-0.5285,-0.5278,-0.5254,-0.5234,-0.52,-0.5173,-0.515,-0.5141,-0.5146,-0.5137,-0.5145,-0.514,-0.5141,-0.514,-0.5147,-0.5148,-0.5148,-0.5148,0,-0.5474,-0.5462,-0.5443,-0.542,-0.5404,-0.5384,-0.5363,-0.5355,-0.5323,-0.5309,-0.5287,-0.5272,-0.5241,-0.5218,-0.5191,-0.5173,-0.5155,-0.5152,-0.515,-0.5157,-0.5168,-0.5162,-0.5144,-0.5151,-0.5151,-0.5151,-0.5151,-0.5151,-0.5487,-0.5478,-0.5452,-0.5432,-0.5414,-0.5395,-0.5383,-0.5362,-0.5343,-0.5317,-0.5301,-0.528,-0.5254,-0.5217,-0.52,-0.5182,-0.5176,-0.5174,-0.5173,-0.5173,-0.5176,-0.5172,-0.5177,-0.5177,-0.5177,-0.5177,-0.5177,0,-0.5499,-0.5482,-0.5464,-0.5436,-0.542,-0.5406,-0.5383,-0.537,-0.5352,-0.533,-0.5311,-0.5286,-0.5264,-0.5237,-0.5213,-0.5204,-0.5195,-0.5199,-0.5199,-0.5195,-0.5183,-0.5186,-0.5206,-0.5206,-0.5206,-0.5206,-0.5206,-0.5206,-0.5503,-0.5487,-0.5472,-0.5446,-0.5429,-0.5408,-0.5396,-0.5379,-0.5361,-0.5335,-0.5317,-0.5299,-0.5275,-0.525,-0.5229,-0.5221,-0.5213,-0.5219,-0.5209,-0.5198,-0.5196,-0.5193,-0.5196,-0.5218,-0.5218,-0.5223,-0.5223,-0.5223]},{"header":{"parameterUnit":"m.s-1","parameterCategory":1,"la1":30.2991,"la2":30.254,"lo1":-89.0895,"lo2":-89.0444,"dy":0.0017,"dx":0.0017,"nx":28,"ny":28,"refTime":"2025-08-04T21:00:00:Z","depth":0,"parameterNumber":3,"parameterNumberName":"V-component_of_WINDS"},"data":[0,0,0,0,0,0,0,0,0,0,0,0,0,0,0,0,0,0,0,0,0,0,0,0,0,0,0,0,0,0,0,0,0,0,0,0,0,0,0,0,0,0,0,0,0,0,0,0,0,0,0,0,0,0,0,0,0,0,2.0295,2.0294,0,2.0186,2.0185,2.0183,2.0191,2.0192,2.0194,2.0196,2.0075,2.0071,2.0066,0,0,0,0,0,0,0,0,0,0,0,0,0,2.0502,2.0498,2.0295,2.0294,2.0292,2.0186,2.0185,2.0183,2.019,2.0192,2.0194,2.0196,2.0077,2.0071,2.0065,0,0,0,0,0,0,0,0,0,0,0,0,0,2.0404,2.0497,2.0295,2.0283,2.0281,2.0186,2.0184,2.0183,2.019,2.0193,2.0195,2.0197,2.0079,2.0072,2.0065,1.9972,0,0,2.0043,2.004,0,0,0,0,0,0,0,0,2.041,2.0396,2.0286,2.0284,2.0281,2.0205,2.0213,2.0112,2.0189,2.0224,2.0196,2.0198,2.0116,2.0106,2.008,1.9966,1.9961,2.0042,2.0038,2.0035,2.0033,0,0,0,0,0,0,0,2.0416,2.0401,2.0251,2.0285,2.0282,2.0281,2.027,2.0194,2.0157,2.0222,2.0222,2.0209,2.0115,2.0086,2.0077,1.9959,2.0043,2.0036,2.0032,2.0029,1.9763,1.976,0,0,0,0,0,0,2.0427,2.0407,2.0255,2.0248,2.0353,2.0275,2.0263,2.0227,2.0158,2.015,2.0207,2.021,2.0097,2.0085,2.0073,1.9958,2.0035,2.0028,2.0024,1.9766,1.9762,1.9759,0,0,0,0,0,0,2.0431,2.0413,2.0259,2.0328,2.0308,2.0269,2.0228,2.0223,2.0195,2.0148,2.014,2.0186,2.0099,2.0083,1.9997,1.9954,2.0025,2.0019,1.9769,1.9765,1.9761,1.9729,0,0,0,0,0,0,2.0437,2.0415,2.0381,2.0327,2.0304,2.0188,2.0226,2.0219,2.0184,2.0186,2.0125,2.0117,2.0099,2.0008,1.999,1.9946,2.0013,1.9773,1.9767,1.9762,1.9734,1.9725,1.9717,0,0,0,0,0,2.0445,2.0375,2.0379,2.0361,2.0262,2.0186,2.0172,2.0156,2.018,2.0144,2.0114,2.0119,1.9963,1.9999,1.9979,1.9932,1.9775,1.9769,1.9763,1.9738,1.9727,1.9717,0,0,0,0,0,0,2.0421,2.0367,2.0372,2.0283,2.0239,2.0187,2.0141,2.0144,2.009,2.0094,2.0073,2.0059,1.9973,1.9944,1.9986,1.9838,1.9872,1.9861,1.986,1.9848,1.984,1.9847,2.0007,0,0,0,0,0,2.0407,2.0352,2.0307,2.0232,2.0211,2.018,2.0146,2.0138,2.009,2.0071,2.0034,1.9985,1.9925,1.9886,1.9828,1.9731,1.9716,1.9689,1.968,1.9673,1.9663,1.9609,1.9595,1.9739,1.9739,1.9739,0,0,2.0374,2.0338,2.0304,2.0227,2.0192,2.0133,2.0164,2.0101,2.0056,2.006,1.9978,1.9949,1.9894,1.9802,1.976,1.9775,1.9621,1.9665,1.966,1.9653,1.9601,1.9587,1.9575,1.9734,1.9735,1.9736,0,0,2.0284,2.0253,2.0187,2.0152,2.01,2.008,2.0065,2.0012,1.9994,1.9912,1.9914,1.986,1.9757,1.9717,1.9683,1.958,1.9582,1.9562,1.9515,1.9462,1.945,1.944,1.9401,1.9388,1.9553,1.9552,1.9552,0,2.0249,2.0164,2.0152,2.0089,2.0054,2.0058,1.999,1.9956,1.9886,1.9861,1.988,1.9751,1.9714,1.9613,1.9588,1.9561,1.9541,1.9567,1.9454,1.9443,1.9433,1.9396,1.9382,1.955,1.955,1.9551,1.9551,0,2.0122,2.0063,2.0016,1.9952,1.9912,1.9846,1.9822,1.9783,1.9778,1.9755,1.9671,1.9627,1.956,1.9536,1.9529,1.9433,1.9444,1.9459,1.9492,1.9418,1.9382,1.9368,1.9547,1.9548,1.9548,1.9549,0,0,2.0012,1.9945,1.9927,1.9898,1.9842,1.9794,1.9728,1.9666,1.9631,1.9583,1.9526,1.944,1.9453,1.9415,1.9404,1.9358,1.9277,1.9378,1.9376,1.9359,1.9166,1.9154,1.9138,1.928,1.9277,1.9275,1.917,0,1.9915,1.9801,1.9789,1.9686,1.963,1.9634,1.9577,1.9534,1.9512,1.9459,1.9433,1.9372,1.9396,1.9373,1.9327,1.9297,1.9238,1.9304,1.9223,1.922,1.9234,1.912,1.9106,1.901,1.9157,1.9154,1.9153,0,1.9786,1.9738,1.963,1.9582,1.9558,1.9506,1.9448,1.9399,1.935,1.9337,1.9296,1.9291,1.922,1.9259,1.916,1.9206,1.9172,1.9152,1.9148,1.9137,1.918,1.9104,1.8979,1.8964,1.9131,1.9133,1.9134,0,1.9714,1.9622,1.9545,1.9521,1.9463,1.9426,1.94,1.9355,1.9318,1.9267,1.9242,1.9182,1.9148,1.9101,1.9079,1.911,1.8981,1.9018,1.8966,1.8966,1.8936,1.8938,1.8801,1.8918,1.8918,1.8919,1.8919,0,1.9605,1.9538,1.9512,1.9465,1.939,1.9376,1.9301,1.9276,1.9236,1.9182,1.9182,1.9131,1.9107,1.9051,1.9034,1.8954,1.8939,1.8924,1.892,1.8923,1.8925,1.8898,1.8904,1.8915,1.8916,1.8917,1.8917,0,1.9511,1.9491,1.9408,1.9361,1.9348,1.9294,1.9253,1.9206,1.9186,1.9117,1.91,1.9066,1.9001,1.8976,1.8896,1.8884,1.8791,1.8793,1.8808,1.8806,1.8754,1.8759,1.8595,1.8572,1.8706,1.8705,1.8704,0,1.9442,1.9391,1.934,1.9305,1.9279,1.9222,1.9186,1.917,1.9132,1.9074,1.9033,1.8969,1.8916,1.8811,1.8778,1.8716,1.8715,1.8662,1.8706,1.871,1.8712,1.8714,1.8708,1.8653,1.8652,1.8651,1.865,0,1.932,1.9313,1.9262,1.9207,1.9164,1.9119,1.9076,1.9047,1.9024,1.898,1.8916,1.8875,1.8795,1.873,1.8667,1.8637,1.8638,1.8637,1.8621,1.8622,1.8632,1.8624,1.8783,1.864,1.8641,1.8642,1.8642,1.8643,1.9234,1.9189,1.9147,1.9089,1.9056,1.9015,1.8969,1.8944,1.8891,1.8825,1.8819,1.8749,1.8701,1.8617,1.8585,1.8528,1.8542,1.8519,1.8513,1.8507,1.8503,1.8644,1.8517,1.8517,1.8517,1.8517,1.8517,0,1.9111,1.9085,1.9033,1.8973,1.8927,1.8937,1.889,1.885,1.8789,1.8746,1.8696,1.862,1.8558,1.8521,1.8458,1.8419,1.8418,1.8403,1.8404,1.8397,1.8495,1.8514,1.8405,1.8405,1.8405,1.8405,1.8405,1.8405,1.9042,1.8966,1.8954,1.8861,1.8834,1.8767,1.8739,1.8701,1.8667,1.8584,1.8533,1.8511,1.847,1.8404,1.8347,1.8337,1.8313,1.8296,1.8287,1.8379,1.839,1.8401,1.8419,1.8291,1.8291,1.8194,1.8193,1.8192]}]]